Regional Weather Roundup
Issued by NWS

Home | Current Version | Previous Version | Graphics & Text | Print | Product List | Glossary On
Versions: 1 2 3 4 5 6 7 8 9 10 11 12 13 14 15 16 17 18 19 20 21 22 23 24 25 26 27 28 29 30 31 32 33 34 35 36 37 38 39 40 41 42 43 44 45 46 47 48 49 50
000
ASUS43 KLSX 231207
RWRMO

WEATHER SUMMARY FOR MISSOURI
NATIONAL WEATHER SERVICE SPRINGFIELD MO
700 AM CDT THU OCT 23 2014

NOTE: "FAIR" INDICATES FEW OR NO CLOUDS BELOW 12,000 FEET WITH NO
       SIGNIFICANT WEATHER AND/OR OBSTRUCTIONS TO VISIBILITY.
       CURRENT SKY AND/OR WEATHER CONDITIONS ARE NOT AVAILABLE FOR
       CHILLICOTHE AND FARMINGTON.

MOZ001>031-035>038-043-044-053-054-231300-
...NORTHERN AND WESTERN MISSOURI...

CITY           SKY/WX    TMP DP  RH WIND       PRES   REMARKS
KANSAS CTY INT CLOUDY    56  56 100 SE3       30.07F
6HR MIN TEMP:  56; 6HR MAX TEMP:  62; 6HR PCP:  0.31;

KANSAS C DTWN  CLOUDY    59  56  89 CALM      30.07F
6HR MIN TEMP:  59; 6HR MAX TEMP:  64; 6HR PCP:  0.10;

LEE`S SUMMIT   CLOUDY    57  54  89 S3        30.08F
6HR MIN TEMP:  56; 6HR MAX TEMP:  59; 6HR PCP:  0.13;

ST JOSEPH      MOCLDY    56  56 100 S5        30.06F
6HR MIN TEMP:  56; 6HR MAX TEMP:  62; 6HR PCP:  0.33;

CHILLICOTHE      N/A     54  49  83 SE6       30.09F
6HR MIN TEMP:  54; 6HR MAX TEMP:  55;

KIRKSVILLE     CLOUDY    51  46  83 S9        30.11F
6HR MIN TEMP:  47; 6HR MAX TEMP:  51;


$$
MOZ066>068-077>081-088>096-101>105-231300-
...SOUTHWEST MISSOURI...

CITY           SKY/WX    TMP DP  RH WIND       PRES   REMARKS
SPRINGFIELD    CLOUDY    53  43  68 SE14      30.15F
6HR MIN TEMP:  52; 6HR MAX TEMP:  53;

JOPLIN         LGT RAIN  58  52  80 S7        30.14S
6HR MIN TEMP:  57; 6HR MAX TEMP:  59; 6HR PCP: TRACE;


$$
MOZ032>034-039>042-045>050-055>058-069>072-231300-
...CENTRAL MISSOURI...

CITY           SKY/WX    TMP DP  RH WIND       PRES   REMARKS
COLUMBIA       CLOUDY    47  43  86 SE7       30.15F
6HR MIN TEMP:  44; 6HR MAX TEMP:  49;

JEFFERSON CITY CLOUDY    47  42  83 SE6       30.16F
6HR MIN TEMP:  43; 6HR MAX TEMP:  48;

ROLLA          MOCLDY    46  40  79 SE7       30.16F
6HR MIN TEMP:  41; 6HR MAX TEMP:  46;

SEDALIA        CLOUDY    54  46  74 S9        30.14F
6HR MIN TEMP:  50; 6HR MAX TEMP:  55;

WHITEMAN AFB   CLOUDY    55  49  79 S8        30.12S
OSAGE BEACH    CLOUDY    48  41  76 S8        30.16S

$$
MOZ051-052-059>065-231300-
...EAST CENTRAL MISSOURI...

CITY           SKY/WX    TMP DP  RH WIND       PRES   REMARKS
ST LOUIS INTL  MOCLDY    48  40  73 CALM      30.21R
6HR MIN TEMP:  42; 6HR MAX TEMP:  48;

SPIRIT OF STL  MOCLDY    37  36  96 CALM      30.20R
6HR MIN TEMP:  34; 6HR MAX TEMP:  40;

ST CHARLES     MOCLDY    41  38  89 CALM      30.21R
6HR MIN TEMP:  39; 6HR MAX TEMP:  44;


$$
MOZ072>076-082>087-097>100-106>115-231300-
...SOUTH CENTRAL AND SOUTHEAST MISSOURI...

CITY           SKY/WX    TMP DP  RH WIND       PRES   REMARKS
CAPE GIRARDEAU SNOW      34  32  93 CALM      30.22S VSB 1/4
6HR MIN TEMP:  33; 6HR MAX TEMP:  42; 6HR PCP: TRACE;

FARMINGTON     PTCLDY    34  32  93 CALM      30.21F
6HR MIN TEMP:  34; 6HR MAX TEMP:  39;

POPLAR BLUFF   PTCLDY    38  35  89 CALM      30.20S
6HR MIN TEMP:  38; 6HR MAX TEMP:  42;

WEST PLAINS    CLOUDY    40  37  89 CALM      30.21R
6HR MIN TEMP:  37; 6HR MAX TEMP:  45;


$$



USA.gov is the U.S. government's official web portal to all federal, state and local government web resources and services.